[[{"header":{"parameterUnit":"m.s-1","parameterCategory":1,"la1":30.2992,"la2":30.254,"lo1":-89.0895,"lo2":-89.0443,"dy":0.0025,"dx":0.0025,"nx":19,"ny":19,"refTime":"2026-05-21T03:00:00:Z","depth":0,"parameterNumber":2,"parameterNumberName":"U-component_of_WINDS"},"data":[0,0,0,-1.3863,-1.3864,-1.3915,-1.3916,-1.3977,-1.3978,0,0,0,0,0,0,0,0,0,0,0,-1.3845,-1.3845,-1.3863,-1.3864,-1.3915,-1.3916,-1.3977,-1.3978,0,0,0,0,0,0,0,0,0,0,0,-1.3845,-1.3845,-1.3845,-1.3865,-1.3915,-1.3916,-1.3977,-1.394,0,0,0,0,0,0,0,0,0,0,-1.3891,-1.3871,-1.3845,-1.3845,-1.3865,-1.3915,-1.3916,-1.3939,-1.3943,-1.3952,0,-1.3959,0,-1.3969,-1.3982,-1.3982,0,0,0,-1.3867,-1.3867,-1.3884,-1.3845,-1.3865,-1.3915,-1.3893,-1.3941,-1.3945,-1.3958,-1.396,-1.3962,-1.397,-1.3982,-1.3982,-1.4025,-1.4025,0,0,-1.3865,-1.3852,-1.3881,-1.3887,-1.3877,-1.3892,-1.3895,-1.3944,-1.3946,-1.396,-1.3964,-1.3971,-1.3982,-1.3983,-1.4025,-1.4025,0,0,0,-1.3854,-1.385,-1.3866,-1.3884,-1.3893,-1.3893,-1.3897,-1.3944,-1.395,-1.3964,-1.3972,-1.3983,-1.3983,-1.4025,-1.4025,-1.4015,0,0,0,-1.3853,-1.3844,-1.3865,-1.3858,-1.3892,-1.3919,-1.3895,-1.3946,-1.3952,-1.3972,-1.3983,-1.3984,-1.4025,-1.4025,-1.4015,-1.4012,0,0,0,-1.3843,-1.3843,-1.3849,-1.3857,-1.3878,-1.3918,-1.3927,-1.3948,-1.3957,-1.3982,-1.3984,-1.4025,-1.4025,-1.4015,-1.4013,-1.402,0,0,0,-1.3829,-1.3841,-1.3849,-1.3865,-1.3878,-1.3911,-1.3927,-1.3953,-1.3974,-1.3983,-1.4025,-1.4025,-1.4015,-1.4013,-1.402,-1.4023,-1.4023,0,0,-1.3837,-1.3841,-1.3852,-1.3861,-1.3889,-1.3904,-1.3933,-1.3964,-1.3978,-1.4009,-1.401,-1.4015,-1.4013,-1.402,-1.4029,-1.4029,0,0,0,-1.385,-1.3858,-1.3868,-1.3886,-1.3909,-1.3929,-1.3957,-1.3969,-1.3995,-1.3991,-1.402,-1.4019,-1.4024,-1.4026,-1.4026,-1.4031,-1.4025,-1.4025,-1.4025,-1.3845,-1.3862,-1.3881,-1.3903,-1.3921,-1.3949,-1.3965,-1.3986,-1.3999,-1.4005,-1.4014,-1.4018,-1.402,-1.402,-1.4025,-1.4018,-1.4018,-1.4018,-1.4018,-1.3859,-1.3872,-1.3888,-1.3911,-1.3929,-1.395,-1.3978,-1.3986,-1.4009,-1.4012,-1.4017,-1.402,-1.402,-1.4025,-1.4017,-1.4017,-1.4017,-1.4017,-1.4017,-1.3857,-1.3867,-1.3879,-1.3907,-1.3927,-1.395,-1.397,-1.3987,-1.4002,-1.4007,-1.4018,-1.4019,-1.4021,-1.4011,-1.4011,-1.4011,-1.4011,-1.4011,-1.4011,-1.385,-1.3865,-1.388,-1.3905,-1.3918,-1.3938,-1.3967,-1.3981,-1.4002,-1.4012,-1.4012,-1.4024,-1.4016,-1.4014,-1.4012,-1.4012,-1.4012,-1.4012,-1.4012,-1.3858,-1.3859,-1.3881,-1.3894,-1.3925,-1.3944,-1.3964,-1.3992,-1.4006,-1.4016,-1.4027,-1.4018,-1.4024,-1.4024,-1.4022,-1.4023,-1.4023,-1.4023,-1.4023,-1.3857,-1.3861,-1.3887,-1.3907,-1.3929,-1.3949,-1.3975,-1.3998,-1.4021,-1.4032,-1.4034,-1.4033,-1.4032,-1.4039,-1.4039,-1.4037,-1.4041,-1.4041,-1.4041,-1.3863,-1.3869,-1.3887,-1.3909,-1.3934,-1.3956,-1.3981,-1.4005,-1.4032,-1.4042,-1.404,-1.4039,-1.4038,-1.4036,-1.4046,-1.4046,-1.4043,0,0]},{"header":{"parameterUnit":"m.s-1","parameterCategory":1,"la1":30.2992,"la2":30.254,"lo1":-89.0895,"lo2":-89.0443,"dy":0.0025,"dx":0.0025,"nx":19,"ny":19,"refTime":"2026-05-21T03:00:00:Z","depth":0,"parameterNumber":3,"parameterNumberName":"V-component_of_WINDS"},"data":[0,0,0,4.2344,4.2349,4.2553,4.2554,4.2818,4.282,0,0,0,0,0,0,0,0,0,0,0,4.2284,4.2286,4.2344,4.2349,4.2553,4.2554,4.2817,4.282,0,0,0,0,0,0,0,0,0,0,0,4.2283,4.2286,4.2288,4.235,4.2553,4.2554,4.2817,4.2662,0,0,0,0,0,0,0,0,0,0,4.2463,4.2408,4.2285,4.2288,4.2351,4.2553,4.2554,4.2655,4.2672,4.2726,0,4.2774,0,4.2801,4.2838,4.2839,0,0,0,4.2349,4.2394,4.2448,4.2288,4.2353,4.2552,4.2461,4.2664,4.2683,4.2749,4.2778,4.2787,4.2806,4.284,4.2841,4.3154,4.3155,0,0,4.2338,4.2322,4.2435,4.2461,4.2428,4.2454,4.2467,4.2676,4.2706,4.2779,4.2793,4.281,4.2841,4.2843,4.3152,4.3154,0,0,0,4.2305,4.2314,4.2363,4.245,4.2487,4.246,4.2475,4.2697,4.2714,4.2796,4.2813,4.2843,4.2846,4.3151,4.3153,4.321,0,0,0,4.2298,4.2295,4.2358,4.2351,4.2483,4.2594,4.2492,4.27,4.2724,4.2812,4.2843,4.2849,4.3149,4.3152,4.3205,4.324,0,0,0,4.2271,4.2292,4.2321,4.2349,4.2436,4.2591,4.2621,4.2706,4.2734,4.2839,4.285,4.3148,4.3151,4.3201,4.3233,4.3318,0,0,0,4.2237,4.237,4.2322,4.2477,4.2435,4.2625,4.2619,4.2762,4.2859,4.2844,4.3149,4.3153,4.3199,4.3228,4.3313,4.3387,4.3416,0,0,4.2396,4.2388,4.248,4.2444,4.2638,4.2595,4.2798,4.2902,4.2927,4.3077,4.3085,4.3207,4.3232,4.3317,4.3585,4.3608,0,0,0,4.2525,4.2591,4.2646,4.2737,4.2819,4.2893,4.2967,4.3006,4.3134,4.3,4.3261,4.3277,4.3327,4.3363,4.3383,4.3428,4.3169,4.3168,4.3168,4.2727,4.2751,4.2906,4.2955,4.3043,4.3118,4.3192,4.3257,4.3256,4.3318,4.3362,4.3522,4.3563,4.3578,4.3624,4.3403,4.3403,4.3404,4.3404,4.2962,4.306,4.3055,4.3203,4.3228,4.3353,4.3431,4.3426,4.3547,4.349,4.3536,4.3471,4.3603,4.3644,4.3408,4.3407,4.3407,4.3406,4.3406,4.3097,4.3148,4.3192,4.3326,4.3427,4.3472,4.3589,4.3608,4.3626,4.3671,4.3721,4.372,4.3722,4.3694,4.3694,4.3695,4.3695,4.3696,4.3696,4.322,4.3268,4.3363,4.3461,4.3522,4.3605,4.3682,4.3744,4.3816,4.3821,4.3821,4.3815,4.3611,4.3559,4.3705,4.3703,4.3702,4.3701,4.3701,4.345,4.3401,4.3548,4.3609,4.3726,4.3825,4.3848,4.3971,4.4024,4.4081,4.4065,4.391,4.3905,4.3889,4.3847,4.4058,4.4058,4.4058,4.4058,4.3564,4.3563,4.3717,4.3814,4.3911,4.3946,4.4112,4.4174,4.423,4.4265,4.4237,4.4182,4.4166,4.417,4.4148,4.4109,4.4383,4.4383,4.4383,4.3707,4.3716,4.3854,4.3907,4.4,4.408,4.4237,4.435,4.4403,4.4397,4.4293,4.4279,4.4191,4.4161,4.4152,4.4118,4.4047,0,0]}]]